Tracking 20621 objects as of 30-Mar-2020
HD Live streaming from Space Station
objects crossing your sky now

SL-3 DEB

Track SL-3 DEB now!
10-day predictions


NORAD ID: 27741
Int'l Code: 1985-090C
Perigee: 437.5 km
Apogee: 467.6 km
Inclination: 97.1 °
Period: 93.5 minutes
Semi major axis: 6823 km
RCS: 0.0083 m2 (small)
Launch date: October 3, 1985
Source: Commonwealth of Independent States (former USSR) (CIS)
Launch site: TYURATAM MISSILE AND SPACE COMPLEX (TTMTR)

Note: This is SATELLITE DEBRIS
aabbcc
Your satellite tracking list
Your tracking list is empty




NASA's NSSDC Master Catalog

Two Line Element Set (TLE):
1 27741U 85090C   20090.17920896 +.00000932 +00000-0 +25019-4 0  9991
2 27741 097.1194 157.9265 0022021 040.1220 320.1648 15.40232710988830
Source of the keplerian elements: AFSPC